| time (UTC) | temp F | wind direction | speed MPH | gust MPH | rain 1hr in | rain 24hr in | rain mn in | humidity % | barometer mb |
| 20260904170557 | 75 | 0.0 | 2.0 | 0.00 | 1.59 | 1.41 | 97 | 1015.8 | |
| 20260904165517 | 74 | 0.0 | 2.0 | 0.00 | 1.59 | 1.41 | 96 | 1015.8 | |
| 20260904164516 | 74 | 225 | 1.0 | 4.0 | 0.00 | 1.59 | 1.41 | 97 | 1015.9 |
| 20260904163517 | 74 | 0.0 | 1.0 | 0.00 | 1.59 | 1.41 | 97 | 1015.9 | |
| 20260904162516 | 74 | 0.0 | 2.0 | 0.00 | 1.59 | 1.41 | 97 | 1015.8 | |
| 20260904161516 | 73 | 225 | 1.0 | 3.0 | 0.00 | 1.59 | 1.41 | 97 | 1015.9 |
| 20260904160517 | 73 | 0.0 | 2.0 | 0.00 | 1.59 | 1.41 | 98 | 1015.8 | |
| 20260904155518 | 73 | 0.0 | 2.0 | 0.00 | 1.59 | 1.41 | 98 | 1015.8 | |
| 20260904154536 | 72 | 248 | 1.0 | 5.0 | 0.00 | 1.59 | 1.41 | 98 | 1015.8 |
| 20260904153516 | 72 | 225 | 1.0 | 4.0 | 0.00 | 1.59 | 1.41 | 98 | 1015.7 |
| 20260904152516 | 71 | 225 | 1.0 | 4.0 | 0.00 | 1.64 | 1.41 | 98 | 1015.6 |
| 20260904151517 | 71 | 0.0 | 2.0 | 0.00 | 1.64 | 1.41 | 98 | 1015.5 | |
| 20260904150538 | 71 | 0.0 | 3.0 | 0.00 | 1.66 | 1.41 | 98 | 1015.6 | |
| 20260904145538 | 71 | 0.0 | 2.0 | 0.00 | 1.80 | 1.41 | 98 | 1015.8 | |
| 20260904144516 | 70 | 0.0 | 1.0 | 0.00 | 1.93 | 1.41 | 99 | 1015.7 | |
| 20260904143536 | 70 | 0.0 | 1.0 | 0.00 | 1.95 | 1.41 | 99 | 1015.8 | |
| 20260904142516 | 69 | 0.0 | 0.0 | 0.00 | 1.95 | 1.41 | 99 | 1015.6 | |
| 20260904141516 | 68 | 0.0 | 1.0 | 0.00 | 1.95 | 1.41 | 99 | 1015.8 | |
| 20260904140557 | 68 | 0.0 | 0.0 | 0.00 | 1.95 | 1.41 | 98 | 1015.7 | |
| 20260904135516 | 68 | 0.0 | 0.0 | 0.00 | 1.95 | 1.41 | 98 | 1015.7 | |
| 20260904134516 | 68 | 0.0 | 1.0 | 0.00 | 1.95 | 1.41 | 98 | 1015.6 | |
| 20260904133516 | 68 | 0.0 | 2.0 | 0.00 | 1.95 | 1.41 | 98 | 1015.6 | |
| 20260904132516 | 68 | 248 | 1.0 | 3.0 | 0.00 | 1.95 | 1.41 | 98 | 1016.0 |
| 20260904131516 | 68 | 248 | 1.0 | 2.0 | 0.00 | 1.95 | 1.41 | 98 | 1016.2 |
| 20260904130516 | 68 | 0.0 | 1.0 | 0.00 | 1.95 | 1.41 | 98 | 1016.1 | |
| 20260904125516 | 68 | 225 | 1.0 | 3.0 | 0.00 | 1.95 | 1.41 | 98 | 1016.0 |
| 20260904124518 | 68 | 248 | 2.0 | 4.0 | 0.00 | 1.95 | 1.41 | 98 | 1015.9 |
| 20260904123517 | 68 | 248 | 2.0 | 6.0 | 0.00 | 1.95 | 1.41 | 98 | 1015.7 |
| 20260904122516 | 68 | 248 | 3.0 | 7.0 | 0.00 | 1.95 | 1.41 | 98 | 1015.6 |
| 20260904121518 | 68 | 270 | 3.0 | 7.0 | 0.01 | 1.95 | 1.41 | 98 | 1015.3 |
| 20260904120538 | 68 | 270 | 4.0 | 8.0 | 0.03 | 1.95 | 1.41 | 98 | 1015.0 |
| 20260904115517 | 68 | 248 | 4.0 | 11.0 | 0.03 | 1.95 | 1.41 | 98 | 1015.5 |
| 20260904114536 | 68 | 248 | 3.0 | 6.0 | 0.04 | 1.95 | 1.41 | 98 | 1015.4 |
| 20260904113516 | 68 | 248 | 3.0 | 8.0 | 0.08 | 1.95 | 1.41 | 98 | 1015.0 |
| 20260904112536 | 68 | 270 | 3.0 | 10.0 | 0.12 | 1.95 | 1.41 | 98 | 1015.2 |
| 20260904111536 | 68 | 248 | 3.0 | 6.0 | 0.12 | 1.94 | 1.40 | 98 | 1015.6 |
| 20260904110516 | 69 | 270 | 1.0 | 3.0 | 0.31 | 1.92 | 1.38 | 98 | 1015.5 |
| 20260904105536 | 69 | 90 | 3.0 | 8.0 | 0.35 | 1.92 | 1.38 | 98 | 1015.3 |
| 20260904104516 | 69 | 90 | 2.0 | 8.0 | 0.37 | 1.91 | 1.37 | 99 | 1015.5 |
| 20260904103516 | 69 | 90 | 4.0 | 9.0 | 0.49 | 1.87 | 1.33 | 98 | 1015.4 |
| 20260904102516 | 69 | 248 | 3.0 | 7.0 | 0.57 | 1.83 | 1.29 | 98 | 1015.7 |
| 20260904101517 | 69 | 90 | 3.0 | 7.0 | 0.72 | 1.82 | 1.28 | 98 | 1015.3 |
| 20260904100536 | 69 | 68 | 1.0 | 3.0 | 0.65 | 1.61 | 1.07 | 98 | 1015.5 |
| 20260904095516 | 69 | 90 | 4.0 | 8.0 | 0.67 | 1.57 | 1.03 | 99 | 1015.0 |
| 20260904094516 | 68 | 90 | 3.0 | 8.0 | 0.68 | 1.54 | 1.00 | 98 | 1015.4 |
| 20260904093516 | 68 | 90 | 2.0 | 4.0 | 0.57 | 1.38 | 0.84 | 98 | 1015.8 |
| 20260904092536 | 68 | 45 | 3.0 | 7.0 | 0.51 | 1.26 | 0.72 | 98 | 1015.2 |
| 20260904091536 | 68 | 23 | 2.0 | 4.0 | 0.41 | 1.10 | 0.56 | 98 | 1016.2 |
| 20260904090516 | 68 | 45 | 1.0 | 2.0 | 0.29 | 0.96 | 0.42 | 98 | 1016.0 |
| 20260904085536 | 68 | 45 | 2.0 | 4.0 | 0.23 | 0.90 | 0.36 | 98 | 1015.7 |
| 20260904084516 | 68 | 90 | 1.0 | 2.0 | 0.19 | 0.86 | 0.32 | 98 | 1015.6 |
| 20260904083536 | 68 | 90 | 1.0 | 4.0 | 0.14 | 0.81 | 0.27 | 98 | 1015.7 |
| 20260904082536 | 68 | 0.0 | 2.0 | 0.09 | 0.75 | 0.21 | 98 | 1016.1 | |
| 20260904081557 | 68 | 0.0 | 0.0 | 0.04 | 0.69 | 0.15 | 98 | 1016.4 | |
| 20260904080516 | 68 | 0.0 | 0.0 | 0.02 | 0.67 | 0.13 | 98 | 1015.8 | |
| 20260904075517 | 68 | 90 | 3.0 | 5.0 | 0.02 | 0.67 | 0.13 | 98 | 1014.6 |
| 20260904074522 | 68 | 45 | 2.0 | 4.0 | 0.03 | 0.67 | 0.13 | 98 | 1014.2 |
| 20260904073516 | 68 | 68 | 2.0 | 4.0 | 0.07 | 0.67 | 0.13 | 98 | 1014.9 |
| 20260904072516 | 68 | 90 | 1.0 | 2.0 | 0.12 | 0.66 | 0.12 | 97 | 1015.3 |
| 20260904071516 | 68 | 0.0 | 1.0 | 0.11 | 0.65 | 0.11 | 97 | 1016.2 | |
| 20260904070516 | 68 | 0.0 | 1.0 | 0.11 | 0.65 | 0.11 | 97 | 1015.7 | |
| 20260904065516 | 68 | 0.0 | 1.0 | 0.11 | 0.65 | 0.11 | 97 | 1015.6 | |
| 20260904064515 | 68 | 45 | 4.0 | 8.0 | 0.10 | 0.64 | 0.10 | 97 | 1015.7 |
| 20260904063515 | 68 | 270 | 7.0 | 13.0 | 0.06 | 0.60 | 0.06 | 97 | 1016.3 |
| 20260904062516 | 68 | 293 | 2.0 | 4.0 | 0.00 | 0.54 | 0.00 | 97 | 1015.7 |
| 20260904061515 | 68 | 68 | 2.0 | 4.0 | 0.00 | 0.54 | 0.00 | 97 | 1015.1 |
| 20260904060516 | 68 | 90 | 3.0 | 6.0 | 0.00 | 0.54 | 0.00 | 97 | 1014.6 |
| 20260904055516 | 68 | 90 | 2.0 | 5.0 | 0.00 | 0.54 | 0.00 | 97 | 1014.8 |
| 20260904054537 | 68 | 90 | 3.0 | 5.0 | 0.00 | 0.54 | 0.00 | 97 | 1014.9 |
| 20260904053516 | 68 | 68 | 1.0 | 4.0 | 0.01 | 0.54 | 0.00 | 96 | 1015.1 |
| 20260904052516 | 68 | 90 | 5.0 | 10.0 | 0.03 | 0.54 | 0.00 | 96 | 1014.7 |
| 20260904051516 | 69 | 90 | 5.0 | 9.0 | 0.09 | 0.54 | 0.00 | 96 | 1015.6 |
| 20260904050517 | 68 | 90 | 6.0 | 10.0 | 0.10 | 0.54 | 0.00 | 96 | 1015.5 |
| 20260904045516 | 68 | 90 | 6.0 | 9.0 | 0.10 | 0.54 | 0.54 | 97 | 1015.6 |
| 20260904044537 | 68 | 68 | 2.0 | 5.0 | 0.10 | 0.54 | 0.54 | 97 | 1016.2 |
| 20260904043516 | 68 | 45 | 2.0 | 5.0 | 0.10 | 0.53 | 0.53 | 97 | 1016.5 |
| 20260904042516 | 68 | 90 | 5.0 | 8.0 | 0.08 | 0.51 | 0.51 | 97 | 1016.1 |
| 20260904041516 | 68 | 68 | 1.0 | 4.0 | 0.02 | 0.45 | 0.45 | 96 | 1017.2 |
| 20260904040516 | 69 | 315 | 3.0 | 8.0 | 0.01 | 0.44 | 0.44 | 96 | 1018.1 |
| 20260904035536 | 69 | 90 | 1.0 | 4.0 | 0.01 | 0.44 | 0.44 | 96 | 1016.3 |
| 20260904034516 | 69 | 0.0 | 0.0 | 0.02 | 0.44 | 0.44 | 96 | 1016.7 | |
| 20260904033516 | 69 | 90 | 1.0 | 4.0 | 0.02 | 0.43 | 0.43 | 96 | 1016.4 |
| 20260904032515 | 69 | 68 | 4.0 | 8.0 | 0.03 | 0.43 | 0.43 | 96 | 1016.1 |
| 20260904031515 | 69 | 45 | 4.0 | 6.0 | 0.05 | 0.43 | 0.43 | 96 | 1016.5 |
| 20260904030515 | 69 | 68 | 4.0 | 7.0 | 0.06 | 0.43 | 0.43 | 97 | 1016.3 |
| 20260904025555 | 69 | 90 | 6.0 | 10.0 | 0.07 | 0.43 | 0.43 | 97 | 1016.1 |
| 20260904024536 | 69 | 90 | 7.0 | 9.0 | 0.06 | 0.42 | 0.42 | 97 | 1016.1 |
| 20260904023535 | 69 | 90 | 3.0 | 6.0 | 0.05 | 0.41 | 0.41 | 96 | 1016.9 |
| 20260904022515 | 69 | 90 | 1.0 | 3.0 | 0.04 | 0.40 | 0.40 | 96 | 1017.4 |
| 20260904021515 | 69 | 45 | 1.0 | 2.0 | 0.02 | 0.38 | 0.38 | 96 | 1017.4 |
| 20260904020515 | 69 | 338 | 2.0 | 4.0 | 0.01 | 0.37 | 0.37 | 96 | 1017.4 |
| 20260904015516 | 69 | 23 | 2.0 | 4.0 | 0.00 | 0.36 | 0.36 | 96 | 1017.1 |
| 20260904014515 | 69 | 0.0 | 0.0 | 0.00 | 0.36 | 0.36 | 96 | 1016.9 | |
| 20260904013517 | 69 | 0.0 | 1.0 | 0.00 | 0.36 | 0.36 | 96 | 1016.7 | |
| 20260904012537 | 69 | 0.0 | 1.0 | 0.00 | 0.36 | 0.36 | 95 | 1016.3 | |
| 20260904011538 | 69 | 68 | 2.0 | 4.0 | 0.00 | 0.36 | 0.36 | 95 | 1016.0 |
| 20260904010517 | 69 | 45 | 2.0 | 4.0 | 0.00 | 0.36 | 0.36 | 96 | 1015.9 |
| 20260904005517 | 69 | 68 | 1.0 | 2.0 | 0.00 | 0.36 | 0.36 | 95 | 1015.6 |
| 20260904004518 | 70 | 68 | 2.0 | 5.0 | 0.00 | 0.36 | 0.36 | 95 | 1015.6 |
| 20260904003517 | 70 | 68 | 3.0 | 5.0 | 0.00 | 0.36 | 0.36 | 95 | 1015.6 |
| 20260904002538 | 70 | 68 | 2.0 | 4.0 | 0.00 | 0.36 | 0.36 | 95 | 1015.6 |
| 20260904001518 | 70 | 23 | 1.0 | 2.0 | 0.00 | 0.36 | 0.36 | 95 | 1015.7 |
| 20260904000517 | 71 | 45 | 2.0 | 4.0 | 0.00 | 0.36 | 0.36 | 94 | 1015.8 |
| 20260903235540 | 71 | 45 | 1.0 | 4.0 | 0.00 | 0.36 | 0.36 | 94 | 1015.9 |
| 20260903234517 | 71 | 45 | 3.0 | 5.0 | 0.00 | 0.36 | 0.36 | 94 | 1015.6 |
| 20260903233518 | 72 | 68 | 2.0 | 5.0 | 0.00 | 0.36 | 0.36 | 93 | 1015.5 |
| 20260903232518 | 72 | 68 | 2.0 | 5.0 | 0.00 | 0.36 | 0.36 | 93 | 1015.6 |
| 20260903231518 | 72 | 68 | 3.0 | 4.0 | 0.00 | 0.36 | 0.36 | 93 | 1015.8 |
| 20260903230519 | 73 | 23 | 3.0 | 5.0 | 0.00 | 0.36 | 0.36 | 92 | 1015.8 |
| 20260903225517 | 73 | 68 | 2.0 | 4.0 | 0.00 | 0.36 | 0.36 | 91 | 1015.7 |
| 20260903224517 | 74 | 23 | 2.0 | 4.0 | 0.00 | 0.36 | 0.36 | 91 | 1015.8 |
| 20260903223557 | 74 | 23 | 3.0 | 4.0 | 0.00 | 0.36 | 0.36 | 91 | 1015.8 |
| 20260903222537 | 74 | 68 | 1.0 | 3.0 | 0.00 | 0.36 | 0.36 | 90 | 1015.4 |
| 20260903221517 | 74 | 45 | 2.0 | 3.0 | 0.00 | 0.36 | 0.36 | 91 | 1015.2 |
| 20260903220517 | 75 | 45 | 2.0 | 5.0 | 0.00 | 0.36 | 0.36 | 89 | 1015.1 |
| 20260903215517 | 75 | 23 | 1.0 | 2.0 | 0.00 | 0.36 | 0.36 | 87 | 1015.3 |
| 20260903214538 | 75 | 315 | 1.0 | 3.0 | 0.00 | 0.36 | 0.36 | 87 | 1015.5 |
| 20260903213538 | 75 | 23 | 1.0 | 3.0 | 0.00 | 0.36 | 0.36 | 88 | 1015.4 |
| 20260903212517 | 75 | 23 | 3.0 | 6.0 | 0.00 | 0.36 | 0.36 | 89 | 1015.0 |
| 20260903211538 | 75 | 45 | 4.0 | 8.0 | 0.00 | 0.36 | 0.36 | 88 | 1015.2 |
| 20260903210517 | 75 | 23 | 3.0 | 5.0 | 0.00 | 0.36 | 0.36 | 86 | 1015.3 |
| 20260903205517 | 76 | 338 | 4.0 | 7.0 | 0.00 | 0.36 | 0.36 | 85 | 1015.3 |
| 20260903204517 | 75 | 338 | 2.0 | 4.0 | 0.00 | 0.36 | 0.36 | 86 | 1015.6 |
| 20260903203517 | 75 | 0 | 3.0 | 6.0 | 0.00 | 0.36 | 0.36 | 86 | 1015.7 |
| 20260903202517 | 75 | 338 | 2.0 | 4.0 | 0.00 | 0.36 | 0.36 | 86 | 1015.9 |
| 20260903201537 | 75 | 45 | 3.0 | 6.0 | 0.00 | 0.36 | 0.36 | 86 | 1015.8 |
| 20260903200517 | 76 | 338 | 2.0 | 5.0 | 0.00 | 0.36 | 0.36 | 87 | 1015.9 |
| 20260903195517 | 75 | 23 | 4.0 | 8.0 | 0.00 | 0.36 | 0.36 | 87 | 1015.9 |
| 20260903194538 | 76 | 45 | 1.0 | 4.0 | 0.00 | 0.36 | 0.36 | 84 | 1016.2 |
| 20260903193539 | 76 | 315 | 1.0 | 5.0 | 0.00 | 0.36 | 0.36 | 84 | 1016.3 |
| 20260903192517 | 75 | 90 | 3.0 | 6.0 | 0.00 | 0.36 | 0.36 | 86 | 1016.0 |
| 20260903191517 | 75 | 90 | 2.0 | 5.0 | 0.00 | 0.36 | 0.36 | 87 | 1016.0 |
| 20260903190517 | 74 | 90 | 2.0 | 4.0 | 0.00 | 0.36 | 0.36 | 90 | 1015.9 |
| 20260903185516 | 74 | 90 | 3.0 | 5.0 | 0.00 | 0.36 | 0.36 | 88 | 1016.0 |
| 20260903184517 | 74 | 90 | 4.0 | 7.0 | 0.00 | 0.36 | 0.36 | 89 | 1016.1 |
| 20260903183542 | 74 | 90 | 2.0 | 5.0 | 0.00 | 0.36 | 0.36 | 89 | 1016.1 |
| 20260903182517 | 73 | 90 | 5.0 | 9.0 | 0.00 | 0.36 | 0.36 | 90 | 1016.0 |
| 20260903181517 | 73 | 90 | 4.0 | 7.0 | 0.00 | 0.36 | 0.36 | 91 | 1016.0 |
| 20260903180517 | 73 | 90 | 7.0 | 10.0 | 0.00 | 0.36 | 0.36 | 91 | 1016.1 |
| 20260903175539 | 73 | 90 | 4.0 | 8.0 | 0.00 | 0.36 | 0.36 | 91 | 1016.2 |
| 20260903174517 | 72 | 45 | 3.0 | 5.0 | 0.00 | 0.36 | 0.36 | 91 | 1016.5 |
| 20260903173537 | 72 | 45 | 6.0 | 10.0 | 0.00 | 0.36 | 0.36 | 93 | 1015.9 |
| 20260903172518 | 71 | 45 | 7.0 | 10.0 | 0.00 | 0.36 | 0.36 | 93 | 1015.9 |
| 20260903171517 | 72 | 45 | 6.0 | 9.0 | 0.00 | 0.36 | 0.36 | 94 | 1015.9 |